GSAT 0205

Last updated on May 29, 2016, 1:44 a.m. UTC

1 40889U 15045A   16147.45644932 -.00000039  00000-0  00000-0 0  9993
2 40889  57.2685 322.6347 0003762  22.4148 337.5963  1.70474691  4391
UTC
Height (km)
Latitude
Longitude
Inclination
Orbital Period
UTC large
Height (km)
Speed (km/s)
/
Latitude / Longitude
Inclination (degrees)
Orbital Period (minutes)
Azimuth
Elevation
Range (km)
Doppler Factor
iOS Compass Heading
iOS Angle

Next 30 passes for location: Hong Kong

Rise time Rise Azimuth (degrees) Set time Set Azimuth (degrees) Duration Max altitude (degrees)

No matching passes for this satellites